User: anonymous   Login
Location: Charleston
(38.3500°N, 81.6330°W)
Time: 08:28:33
(UTC-04:00)
Language:

Cosmos 1812 Rocket - Orbit

View from above orbital plane
View from above orbital plane
View from above satellite
View from above satellite

Ground track
Ground track

The orbit data is extracted from the following two-line orbital elements,

1 17296U 87003B   15150.13317743  .00000215  00000-0  23452-4 0  9992
2 17296 082.5299 005.2459 0019544 165.4118 194.7666 14.82969228532095
Epoch (UTC): 30 May 2015 03:11:46
Eccentricity: 0.0019544
inclination: 82.5299°
perigee height: 606 km
apogee height: 633 km
right ascension of ascending node: 5.2459°
argument of perigee: 165.4118°
revolutions per day: 14.82969228
mean anomaly at epoch: 194.7666°
orbit number at epoch: 53209

The dashed part of the orbit path shows where the satellite is in the earth's shadow,  

DLR